Location: Arcizac
(43.0933°N, 0.0112°E)
Time: 13:17:21
(UTC+00:00)

USA 81 - Pass Details

Date: 14 December 2019
Orbit: 785 x 788 km, 85.0° (Epoch: 06 January)

Event Time Altitude Azimuth Distance (km) Brightness Sun altitude
Rises 18:29:43 0° 170° (S) 3,264 7.3 -21.8°
Reaches altitude 10° 18:32:06 10° 166° (SSE) 2,339 6.5 -22.3°
Enters shadow 18:36:41 52° 112° (ESE) 975 4.2 -23.1°
